Back to catalog

STARLINK-34048

AliveCommunicationsVLEO
NORAD 63816·PAYLOAD·🇺🇸 United States

Launched May 4, 2025 from Cape Canaveral Space Force Station

Loading…

Next Passes (next 24 hours)

TLE

FreshSource: CelesTrak SupGP

Epoch: Sep 14, 2026, 22:42 UTC

1 63816C 25092N   26257.94631944 -.00048648  00000+0 -17618-2 0  2577
2 63816  43.0006 184.0487 0001343 268.3784 149.9280 15.27606711    10

Track STARLINK-34048 in real time with AllMySat

Download on the App Store